Other Public Products
Issued by NWS Grand Forks, ND

Home | Current Version | Previous Version | Text Only | Print | Product List | Glossary On
Versions: 1 2 3 4 5 6 7 8 9 10 11 12 13 14 15 16 17 18 19 20 21 22 23 24 25 26 27 28 29 30 31 32 33 34 35 36 37 38 39 40 41 42 43 44 45 46 47 48 49 50
000
FPUS83 KFGF 011210
OPUFGF
PRAIRIE TO PINES WEATHER ROUNDUP
NATIONAL WEATHER SERVICE EASTERN NORTH DAKOTA/GRAND FORKS ND
600 AM CST SUN FEB 01 2015

 **SATELLITE DATA USED TO AUGMENT SKY COVER AT AUTOMATED STATIONS**
 *****  WEATHER ACROSS EASTERN NORTH DAKOTA  *****

CITY           SKY/WX    TMP DP  RH WIND       PRES   REMARKS
GRAND FORKS    PTCLDY   -11 -19  68 N17       30.57S WCI -35
6HR MIN TEMP: -12; 6HR MAX TEMP:  -8;

GRAND FORKS AF PTCLDY   -12 -21  64 N13G21    30.57S WCI -33
GRAND CITY NWS   N/A    -13 N/A N/A N9          N/A  WCI -31
BUXTON         NOT AVBL
DEVILS LAKE    PTCLDY   -11 -24  53 NE8       30.49S WCI -28
6HR MIN TEMP: -11; 6HR MAX TEMP:  -9;

FARGO          CLOUDY    -5 -14  65 N21       30.47S WCI -29
6HR MIN TEMP:  -5; 6HR MAX TEMP:  -1;

WAHPETON ARPT  CLOUDY     0  -9  65 N21G29    30.40R WCI -23
$$

 *****  WEATHER ACROSS CENTRAL AND WESTERN NORTH DAKOTA  *****

CITY           SKY/WX    TMP DP  RH WIND       PRES   REMARKS
JAMESTOWN      CLOUDY    -7 -15  68 N15       30.44F WCI -28
6HR MIN TEMP:  -7; 6HR MAX TEMP:  -4;

BISMARCK       CLOUDY    -5 -14  65 N8        30.49R WCI -20
6HR MIN TEMP:  -6; 6HR MAX TEMP:  -3; 6HR PCP:  0.05;

MINOT          MOCLDY   -10 -18  67 NW6       30.50S WCI -23
6HR MIN TEMP: -10; 6HR MAX TEMP:  -8;

MINOT AFB      PTCLDY    -8 -16  68 NW6       30.51S WCI -22
6HR MIN TEMP:  -9; 6HR MAX TEMP:  -8;

GARRISON         N/A     -8 -15  71 N5        30.47S WCI -19
6HR MIN TEMP:  -8; 6HR MAX TEMP:  -4;

WILLISTON      PTCLDY   -15 -20  78 NW6       30.50R WCI -29
6HR MIN TEMP: -18; 6HR MAX TEMP:  -3;

DICKINSON      CLOUDY    -4 -10  75 N7        30.37S WCI -18
6HR MIN TEMP:  -4; 6HR MAX TEMP:  -2; 6HR PCP:  0.01;

HETTINGER      LGT SNOW  -3  -8  79 N10       30.37R WCI -20
6HR MIN TEMP:  -4; 6HR MAX TEMP:   0; 6HR PCP: TRACE;

$$

 *****  OTHER OBSERVATIONS NORTHEAST NORTH DAKOTA  *****

CITY           SKY/WX    TMP DP  RH WIND       PRES   REMARKS
WALHALLA         N/A    -11 -18  70 NW5       30.59F WCI -23
LANGDON        NOT AVBL
CAVALIER       FAIR     -11 -18  70 N7        30.60S WCI -26
GRAFTON        NOT AVBL
CANDO          PTSUNNY  -13 -20  70 N6        30.53S WCI -27
FORT TOTTEN      N/A    -13 -24  59 NE3       29.95S
ROLLA          CLOUDY   -13 -20  70 N8        30.48S WCI -30
RUGBY          FAIR     -13 -20  70 E3        30.52S
 ***** THE ABOVE OBSERVATIONS ARE NON NWS ARE NOT QUALITY
        CONTROLLED AND MAY MIS-REPORT RAIN FOR SNOW...
$$

 *****  OTHER OBSERVATIONS SOUTHEAST NORTH DAKOTA *****

CITY           SKY/WX    TMP DP  RH WIND       PRES   REMARKS
COOPERSTOWN    NOT AVBL
VALLEY CITY    CLOUDY    -8 -13  77 N15       30.44S WCI -29
OAKES            N/A     -2 -11  65 N18G25    30.41R WCI -24
GWINNER        CLOUDY    -2 -13  60 N23G29    30.42R WCI -26
SHEYENNE NWR     N/A     -7 -17  63 N12       29.95S WCI -26
BUFFALO        NOT AVBL
WYNDMERE         N/A     -6 -13  71 VRB18       N/A  WCI -29
 ***** THE ABOVE OBSERVATIONS ARE NON NWS ARE NOT QUALITY
       CONTROLLED AND MAY MIS-REPORT RAIN FOR SNOW...
$$

  *****  WEATHER ACROSS NORTHERN MINNESOTA  *****

CITY           SKY/WX    TMP DP  RH WIND       PRES   REMARKS
FLAG ISLAND    PTCLDY   -20 -26  76 NW7       30.52S WCI -37
WARROAD        MOCLDY   -20 -27  69 NW5       30.51F WCI -33
ROSEAU         MOCLDY   -17 -24  70 N3        30.53S
HALLOCK        MOCLDY   -15 -22  70 N7        30.58F WCI -31
THF RVR FALLS  MOCLDY   -11 -20  64 N8        30.50S WCI -28
6HR MIN TEMP: -11; 6HR MAX TEMP:  -6;

HALSTAD          N/A     -8 -17  65 N20         N/A  WCI -32
FOSSTON        PTCLDY   -11 -18  70 NE9       30.45S WCI -29
BAUDETTE       MOCLDY   -17 -22  78 N6        30.49S WCI -32
6HR MIN TEMP: -17; 6HR MAX TEMP: -12;

WASKISH        MOCLDY   -17 -20  83 CALM      30.46F
CROOKSTON      PTCLDY   -11 -17  77 N12       30.55S WCI -31
$$
  *****  WEATHER ACROSS CENTRAL AND WEST MINNESOTA  *****

CITY           SKY/WX    TMP DP  RH WIND       PRES   REMARKS
BEMIDJI        FAIR     -12 -17  77 NE7       30.41S WCI -28
PARK RAPIDS    PTCLDY    -5 -15  62 N14       30.35S WCI -25
6HR MIN TEMP:  -5; 6HR MAX TEMP:   1;

WADENA         PTCLDY    -2 -11  65 N16G23    30.32R WCI -23
DETROIT LAKES  PTCLDY    -4  -9  77 NE12      30.37F WCI -22
MOORHEAD       PTCLDY    -2 -11  65 N20       30.45S WCI -25
FERGUS FALLS   PTCLDY     0 -11  60 NE12G17   30.39S WCI -18
ELBOW LAKE     CLOUDY     2  -6  69 N15G21    30.31S WCI -17
MORRIS MN      FAIR       7  -2  66 N18       30.29R WCI -12
STAPLES        PTCLDY    -2  -9  71 N10G16    30.31S WCI -19
WHEATON        CLOUDY     0  -8  71 N18G25    30.38R WCI -22
$$
  *****  WEATHER ELSEWHERE ACROSS MINNESOTA  *****

CITY           SKY/WX    TMP DP  RH WIND       PRES   REMARKS
DULUTH         PTCLDY    -1  -9  68 N10       30.29S WCI -17
6HR MIN TEMP:  -1; 6HR MAX TEMP:   2; 6HR PCP: TRACE;

INTRNTL FALLS  MOCLDY   -26 -31  77 N3        30.47S HAZE
6HR MIN TEMP: -27; 6HR MAX TEMP: -11;

ELY            PTCLDY   -15 -18  84 CALM      30.38F
CLOQUET        MOCLDY    -2  -9  71 N10       30.29S WCI -19
BRAINERD       MOCLDY     0  -9  65 NE12      30.32R WCI -17
6HR MIN TEMP:   0; 6HR MAX TEMP:   7;

HIBBING        CLOUDY    -6 -16  61 N10       30.36F WCI -24
6HR MIN TEMP:  -6; 6HR MAX TEMP:  -3;

ALEXANDRIA     PTCLDY     2  -6  69 N15       30.27R WCI -17
6HR MIN TEMP:   2; 6HR MAX TEMP:  11;

SAINT CLOUD    MOCLDY     7  -2  66 N15       30.25R WCI -10
6HR MIN TEMP:   7; 6HR MAX TEMP:  16;

MINNEAPOLIS    LGT SNOW  14   8  77 NE18G25   30.18S WCI  -3
6HR MIN TEMP:  14; 6HR MAX TEMP:  21; 6HR PCP:  0.01;

$$

  *****  WEATHER ACROSS SOUTH DAKOTA  *****

CITY           SKY/WX    TMP DP  RH WIND       PRES   REMARKS
SIOUX FALLS    LGT SNOW  10   6  84 N22G31    30.10R VSB 3/4 WCI -10
6HR MIN TEMP:  10; 6HR MAX TEMP:  23; 6HR PCP:  0.04;

BROOKINGS      NOT AVBL
WATERTOWN      CLOUDY     0  -5  79 N22G31    30.22R WCI -23
6HR MIN TEMP:   0; 6HR MAX TEMP:   9; 6HR PCP: TRACE;

HURON          LGT SNOW   1  -4  79 N24G30    30.30R WCI -22
6HR MIN TEMP:   1; 6HR MAX TEMP:  12; 6HR PCP: TRACE;

SISSETON         N/A     -1  -7  75 N21G28    30.36R WCI -24
ABERDEEN       LGT SNOW  -1  -9  68 N25G31    30.37R WCI -25
6HR MIN TEMP:  -1; 6HR MAX TEMP:   4; 6HR PCP: TRACE;

MITCHELL       LGT SNOW   4   0  83 N23G29    30.25R VSB 3/4 WCI -18
PIERRE         LGT SNOW   1  -5  75 N21       30.34R WCI -21
6HR MIN TEMP:   1; 6HR MAX TEMP:  11; 6HR PCP: TRACE;

MOBRIDGE       FLURRIES  -3 -10  72 N16       30.38R WCI -24
RAPID CITY     CLOUDY     5   1  83 N20       30.26R WCI -15
6HR MIN TEMP:   5; 6HR MAX TEMP:  11; 6HR PCP: TRACE;

$$

  *****  SOME WEATHER IN NEARBY STATES *****

CITY           SKY/WX    TMP DP  RH WIND       PRES   REMARKS
GLASGOW MT     PTCLDY    -3  -6  87 SE3       30.46R
6HR MIN TEMP:  -5; 6HR MAX TEMP:   3; 6HR PCP: TRACE;

GREAT FALLS MT MOCLDY    -2  -5  87 SW6       30.26F WCI -14
6HR MIN TEMP:  -5; 6HR MAX TEMP:   5;

CHEYENNE WY    CLOUDY    16  12  84 N13G22    30.02R WCI   2
6HR MIN TEMP:  16; 6HR MAX TEMP:  24; 6HR PCP: TRACE;

SCOTTSBLUFF NE MOCLDY    20  14  77 N13       30.15R WCI   7
6HR MIN TEMP:  20; 6HR MAX TEMP:  25;

OMAHA NE       LGT SNOW  29  28  96 N21       29.82R FOG     WCI  16
6HR MIN TEMP:  29; 6HR MAX TEMP:  34; 6HR PCP:  0.18;

DES MOINES IA  LGT SNOW  33  31  92 NE8       29.79F FOG
6HR MIN TEMP:  33; 6HR MAX TEMP:  33; 6HR PCP:  0.20;

DAVENPORT IA   LGT SNOW  32  30  92 E17       29.86F VSB 3/4 WCI  21
6HR MIN TEMP:  32; 6HR MAX TEMP:  32; 6HR PCP:  0.27;

CHICAGO IL     SNOW      30  29  96 E10       30.00F VSB 1/2 WCI  21
6HR MIN TEMP:  30; 6HR MAX TEMP:  31; 6HR PCP:  0.23;

EAU CLAIRE WI  LGT SNOW  13   6  74 NE17      30.19S WCI  -4
6HR MIN TEMP:  13; 6HR MAX TEMP:  19; 6HR PCP: TRACE;

LA CROSSE WI   LGT SNOW  17  10  74 E14G29    30.13F WCI   3
6HR MIN TEMP:  17; 6HR MAX TEMP:  28; 6HR PCP:  0.16;

$$

  *****  SOME NATIONAL WEATHER *****

CITY           SKY/WX    TMP DP  RH WIND       PRES   REMARKS
LA GUARDIA NY  MOCLDY    24  11  57 SW3       30.22S


USA.gov is the U.S. government's official web portal to all federal, state and local government web resources and services.